カタログに戻る

STARLINK-34126

運用中通信VLEO
NORAD 64083·PAYLOAD·🇺🇸 United States

打ち上げ May 21, 2025 から Cape Canaveral Space Force Station

Loading…

次のパス (今後24時間)

TLE

最新Source: CelesTrak SupGP

元期: Sep 14, 2026, 23:03 UTC

1 64083C 25107V   26257.96090278 -.00009313  00000+0 -33727-3 0  2578
2 64083  42.9998 212.8788 0001365 262.1773 122.4416 15.27588498    11

AllMySatでSTARLINK-34126をリアルタイム追跡

Download on the App Store